This is the latest recevied weather packets stored in our database for station/object N3EG. If no packets are shown the sender has not sent any weather packets the latest 10 day(s).
| Time | Temp. | Humidity | Pressure | Rain* | Wind** | Luminosity | Snow |
|---|---|---|---|---|---|---|---|
| 1777853703 | 31.67° C | 36% | 1008 hPa | 0 mm | - | - | - |
| 1777853402 | 31.67° C | 37% | 1008 hPa | 0 mm | - | - | - |
| 1777853103 | 31.67° C | 36% | 1008.1 hPa | 0 mm | - | - | - |
| 1777852803 | 31.67° C | 35% | 1008.1 hPa | 0 mm | - | - | - |
| 1777852502 | 31.67° C | 35% | 1008.1 hPa | 0 mm | - | - | - |
| 1777852203 | 32.22° C | 32% | 1008.1 hPa | 0 mm | - | - | - |
| 1777851902 | 32.22° C | 32% | 1008.1 hPa | 0 mm | - | - | - |
| 1777851602 | 32.22° C | 33% | 1008.1 hPa | 0 mm | - | - | - |
| 1777851303 | 32.22° C | 32% | 1008.1 hPa | 0 mm | - | - | - |
| 1777851003 | 32.22° C | 31% | 1008.2 hPa | 0 mm | - | - | - |
| 1777850702 | 32.22° C | 36% | 1008.2 hPa | 0 mm | - | - | - |
| 1777850403 | 31.67° C | 34% | 1008.3 hPa | 0 mm | - | - | - |
| 1777850103 | 31.67° C | 34% | 1008.3 hPa | 0 mm | - | - | - |
| 1777849802 | 32.22° C | 33% | 1008.3 hPa | 0 mm | - | - | - |
| 1777849503 | 32.22° C | 33% | 1008.3 hPa | 0 mm | - | - | - |
| 1777849202 | 32.22° C | 39% | 1008.5 hPa | 0 mm | - | - | - |
| 1777848902 | 32.22° C | 35% | 1008.6 hPa | 0 mm | - | - | - |
| 1777848603 | 32.22° C | 32% | 1008.8 hPa | 0 mm | - | - | - |
| 1777848302 | 32.22° C | 33% | 1008.8 hPa | 0 mm | - | - | - |
| 1777848003 | 31.67° C | 35% | 1009 hPa | 0 mm | - | - | - |
| 1777847703 | 31.67° C | 34% | 1008.9 hPa | 0 mm | - | - | - |
| 1777847402 | 31.67° C | 38% | 1009 hPa | 0 mm | - | - | - |
| 1777847103 | 31.67° C | 35% | 1009.1 hPa | 0 mm | - | - | - |
| 1777846803 | 31.67° C | 36% | 1009.1 hPa | 0 mm | - | - | - |
| 1777846502 | 31.67° C | 33% | 1009.3 hPa | 0 mm | - | - | - |
* Rain latest hour (hover to see other rain measurements)
** Current wind speed in m/s (hover to see current wind gust speed)